When you browse on this site, cookies collect data to enhance your experience and personalize the content and advertising you see.
Visit our Privacy Policy to learn more. By continuing to use the site, you agree to this use of cookies and data.
  • In Sweden
  • List of Countries
  • For 7 days
  • Water Temperature
  • Weather Map
  • Weather Widgets
  • user-avatar
    Login

    Hourly Weather Bar

    Today, 21 September, Saturday

    Time Temperature Precipitation Wind Pressure Humidity
    00:00 +2°C° 0 mm 3 mps 740 mmHg 86%
    01:00 +2°C° 0 mm 3 mps 740 mmHg 87%
    02:00 +2°C° 0 mm 3 mps 740 mmHg 88%
    03:00 +1°C° 0 mm 3 mps 740 mmHg 88%
    04:00 +1°C° 0 mm 3 mps 740 mmHg 89%
    05:00 +1°C° 0 mm 3 mps 741 mmHg 89%
    06:00 +2°C° 0 mm 3 mps 741 mmHg 82%
    07:00 +3°C° 0 mm 3 mps 741 mmHg 76%
    08:00 +5°C° 0 mm 3 mps 742 mmHg 69%
    09:00 +7°C° 0 mm 4 mps 742 mmHg 61%
    10:00 +10°C° 0 mm 4 mps 741 mmHg 53%
    11:00 +12°C° 0 mm 4 mps 741 mmHg 45%
    12:00 +13°C° 0 mm 5 mps 741 mmHg 46%
    13:00 +13°C° 0 mm 5 mps 741 mmHg 47%
    14:00 +13°C° 0 mm 5 mps 741 mmHg 48%
    15:00 +12°C° 0 mm 5 mps 740 mmHg 54%
    16:00 +10°C° 0 mm 5 mps 740 mmHg 60%
    17:00 +10°C° 0 mm 5 mps 739 mmHg 66%
    18:00 +9°C° 0 mm 5 mps 740 mmHg 69%
    19:00 +10°C° 0 mm 4 mps 740 mmHg 72%
    20:00 +8°C° 0 mm 4 mps 740 mmHg 76%
    21:00 +8°C° 0 mm 4 mps 739 mmHg 76%
    22:00 +10°C° 0 mm 4 mps 739 mmHg 77%
    23:00 +10°C° 0 mm 4 mps 739 mmHg 77%

    Tomorrow, 22 September, Sunday

    Time Temperature Precipitation Wind Pressure Humidity
    00:00 +10°C° 0 mm 4 mps 739 mmHg 77%
    01:00 +9°C° 0 mm 5 mps 739 mmHg 76%
    02:00 +9°C° 0 mm 5 mps 739 mmHg 76%
    03:00 +8°C° 0 mm 5 mps 738 mmHg 75%
    04:00 +8°C° 0 mm 5 mps 738 mmHg 73%
    05:00 +8°C° 0 mm 5 mps 738 mmHg 72%
    06:00 +8°C° 0 mm 5 mps 738 mmHg 69%
    07:00 +9°C° 0 mm 5 mps 738 mmHg 66%
    08:00 +10°C° 0 mm 5 mps 738 mmHg 63%
    09:00 +13°C° 0 mm 5 mps 738 mmHg 59%
    10:00 +15°C° 0 mm 5 mps 738 mmHg 55%
    11:00 +17°C° 0 mm 5 mps 738 mmHg 51%
    12:00 +19°C° 0 mm 5 mps 738 mmHg 49%
    13:00 +20°C° 0 mm 5 mps 737 mmHg 47%
    14:00 +21°C° 0 mm 5 mps 737 mmHg 46%
    15:00 +20°C° 0 mm 4 mps 736 mmHg 48%
    16:00 +20°C° 0 mm 4 mps 736 mmHg 50%
    17:00 +19°C° 0 mm 3 mps 736 mmHg 53%
    18:00 +17°C° 0 mm 3 mps 736 mmHg 59%
    19:00 +14°C° 0 mm 3 mps 736 mmHg 65%
    20:00 +12°C° 0 mm 3 mps 736 mmHg 72%
    21:00 +13°C° 0 mm 2 mps 736 mmHg 74%
    22:00 +12°C° 0 mm 2 mps 736 mmHg 77%
    23:00 +12°C° 0 mm 2 mps 736 mmHg 80%

    Day after tomorrow, 23 September, Monday

    Time Temperature Precipitation Wind Pressure Humidity
    00:00 +10°C° 0 mm 2 mps 736 mmHg 82%
    01:00 +10°C° 0 mm 2 mps 736 mmHg 84%
    02:00 +10°C° 0 mm 2 mps 736 mmHg 86%
    03:00 +10°C° 0 mm 1 mps 736 mmHg 87%
    04:00 +10°C° 0 mm 1 mps 736 mmHg 88%
    05:00 +10°C° 0 mm 1 mps 736 mmHg 89%
    06:00 +11°C° 0 mm 1 mps 736 mmHg 85%
    07:00 +12°C° 0 mm 2 mps 736 mmHg 82%
    08:00 +13°C° 0 mm 2 mps 737 mmHg 78%
    09:00 +15°C° 0 mm 2 mps 737 mmHg 71%
    10:00 +17°C° 0 mm 2 mps 737 mmHg 64%
    11:00 +19°C° 0 mm 2 mps 737 mmHg 57%
    12:00 +20°C° 0 mm 2 mps 737 mmHg 53%
    13:00 +21°C° 0 mm 2 mps 736 mmHg 49%
    14:00 +21°C° 0 mm 2 mps 736 mmHg 45%
    15:00 +21°C° 0 mm 2 mps 735 mmHg 47%
    16:00 +20°C° 0 mm 2 mps 735 mmHg 50%
    17:00 +20°C° 0 mm 2 mps 735 mmHg 52%
    18:00 +18°C° 0 mm 3 mps 735 mmHg 60%
    19:00 +15°C° 0 mm 4 mps 735 mmHg 67%
    20:00 +13°C° 0 mm 5 mps 735 mmHg 75%
    21:00 +12°C° 0 mm 4 mps 735 mmHg 76%
    22:00 +11°C° 0 mm 4 mps 734 mmHg 78%
    23:00 +11°C° 0 mm 4 mps 734 mmHg 79%

    24 September, Tuesday

    Time Temperature Precipitation Wind Pressure Humidity
    00:00 +11°C° 0 mm 4 mps 734 mmHg 78%
    01:00 +11°C° 0 mm 4 mps 734 mmHg 77%
    02:00 +11°C° 0 mm 4 mps 733 mmHg 76%
    03:00 +11°C° 0 mm 3 mps 733 mmHg 74%
    04:00 +11°C° 0 mm 3 mps 733 mmHg 73%
    05:00 +12°C° 0 mm 2 mps 733 mmHg 71%
    06:00 +13°C° 0 mm 2 mps 733 mmHg 70%
    07:00 +13°C° 0 mm 3 mps 733 mmHg 70%
    08:00 +13°C° 0 mm 3 mps 733 mmHg 69%
    09:00 +14°C° 0.1 mm 3 mps 733 mmHg 73%
    10:00 +14°C° 0.1 mm 4 mps 733 mmHg 76%
    11:00 +14°C° 0.1 mm 4 mps 733 mmHg 79%
    12:00 +14°C° 0.1 mm 4 mps 733 mmHg 81%
    13:00 +13°C° 0.1 mm 4 mps 733 mmHg 82%
    14:00 +13°C° 0.1 mm 3 mps 732 mmHg 84%
    15:00 +13°C° 0 mm 3 mps 732 mmHg 84%
    16:00 +14°C° 0 mm 2 mps 732 mmHg 85%
    17:00 +14°C° 0 mm 1 mps 732 mmHg 85%
    18:00 +14°C° 0 mm 1 mps 732 mmHg 85%
    19:00 +14°C° 0 mm 1 mps 732 mmHg 85%
    20:00 +14°C° 0 mm 2 mps 732 mmHg 85%
    21:00 +13°C° 0 mm 2 mps 732 mmHg 84%
    22:00 +13°C° 0 mm 2 mps 732 mmHg 84%
    23:00 +13°C° 0 mm 2 mps 732 mmHg 84%

    25 September, Wednesday

    Time Temperature Precipitation Wind Pressure Humidity
    00:00 +13°C° 0 mm 2 mps 732 mmHg 84%
    01:00 +13°C° 0 mm 1 mps 732 mmHg 84%
    02:00 +13°C° 0 mm 1 mps 732 mmHg 84%
    03:00 +13°C° 0 mm 1 mps 732 mmHg 85%
    04:00 +13°C° 0 mm 2 mps 732 mmHg 87%
    05:00 +13°C° 0 mm 2 mps 732 mmHg 89%
    06:00 +13°C° 0 mm 2 mps 732 mmHg 88%
    07:00 +14°C° 0 mm 2 mps 732 mmHg 86%
    08:00 +14°C° 0 mm 2 mps 732 mmHg 85%
    09:00 +15°C° 0 mm 2 mps 732 mmHg 80%
    10:00 +17°C° 0 mm 3 mps 732 mmHg 76%
    11:00 +18°C° 0 mm 3 mps 732 mmHg 71%
    12:00 +18°C° 0.2 mm 3 mps 732 mmHg 69%
    13:00 +19°C° 0.2 mm 3 mps 732 mmHg 67%
    14:00 +19°C° 0.2 mm 3 mps 731 mmHg 64%
    15:00 +19°C° 0.5 mm 3 mps 731 mmHg 67%
    16:00 +18°C° 0.5 mm 3 mps 731 mmHg 70%
    17:00 +18°C° 0.5 mm 3 mps 730 mmHg 72%
    18:00 +17°C° 0.4 mm 3 mps 730 mmHg 77%
    19:00 +16°C° 0.4 mm 3 mps 730 mmHg 81%
    20:00 +15°C° 0.4 mm 2 mps 730 mmHg 86%
    21:00 +15°C° 0.5 mm 2 mps 730 mmHg 87%
    22:00 +15°C° 0.5 mm 2 mps 730 mmHg 88%
    23:00 +15°C° 0.5 mm 2 mps 730 mmHg 90%

    26 September, Thursday

    Time Temperature Precipitation Wind Pressure Humidity
    00:00 +15°C° 0.4 mm 2 mps 730 mmHg 91%
    01:00 +15°C° 0.4 mm 2 mps 729 mmHg 92%
    02:00 +14°C° 0.4 mm 2 mps 729 mmHg 94%
    03:00 +14°C° 0.6 mm 2 mps 729 mmHg 94%
    04:00 +14°C° 0.6 mm 2 mps 729 mmHg 95%
    05:00 +14°C° 0.6 mm 2 mps 729 mmHg 96%
    06:00 +14°C° 0.1 mm 2 mps 729 mmHg 94%
    07:00 +15°C° 0.1 mm 2 mps 729 mmHg 92%
    08:00 +15°C° 0.1 mm 2 mps 729 mmHg 90%
    09:00 +16°C° 0.2 mm 2 mps 729 mmHg 84%
    10:00 +17°C° 0.2 mm 2 mps 729 mmHg 78%
    11:00 +18°C° 0.2 mm 2 mps 729 mmHg 72%
    12:00 +19°C° 0.2 mm 2 mps 729 mmHg 68%
    13:00 +19°C° 0.2 mm 3 mps 729 mmHg 65%
    14:00 +20°C° 0.2 mm 3 mps 729 mmHg 61%
    15:00 +19°C° 0.2 mm 2 mps 729 mmHg 65%
    16:00 +19°C° 0.2 mm 2 mps 729 mmHg 68%
    17:00 +19°C° 0.2 mm 1 mps 728 mmHg 71%
    18:00 +17°C° 0.5 mm 2 mps 729 mmHg 77%
    19:00 +16°C° 0.5 mm 2 mps 729 mmHg 82%
    20:00 +15°C° 0.5 mm 2 mps 729 mmHg 88%
    21:00 +15°C° 0.3 mm 2 mps 729 mmHg 89%
    22:00 +15°C° 0.3 mm 2 mps 729 mmHg 90%
    23:00 +14°C° 0.3 mm 2 mps 729 mmHg 91%
    Show more